| time (UTC) | temp F | wind direction | speed MPH | gust MPH | rain 1hr in | rain 24hr in | rain mn in | humidity % | barometer mb |
| 20260507012530 | 61 | 72 | 2.0 | 4.0 | 0.00 | 0.00 | 0.00 | 53 | 1016.7 |
| 20260507012026 | 62 | 46 | 0.0 | 4.0 | 0.00 | 0.00 | 0.00 | 52 | 1016.8 |
| 20260507011524 | 62 | 62 | 5.0 | 5.0 | 0.00 | 0.00 | 0.00 | 51 | 1016.7 |
| 20260507011020 | 62 | 52 | 3.0 | 4.0 | 0.00 | 0.00 | 0.00 | 51 | 1016.7 |
| 20260507010514 | 63 | 67 | 3.0 | 5.0 | 0.00 | 0.00 | 0.00 | 50 | 1016.4 |
| 20260507010011 | 63 | 42 | 6.0 | 6.0 | 0.00 | 0.00 | 0.00 | 49 | 1016.5 |
| 20260507005509 | 63 | 61 | 5.0 | 6.0 | 0.00 | 0.00 | 0.00 | 49 | 1016.4 |
| 20260507005005 | 63 | 26 | 3.0 | 12.0 | 0.00 | 0.00 | 0.00 | 49 | 1016.3 |
| 20260507004502 | 64 | 79 | 3.0 | 6.0 | 0.00 | 0.00 | 0.00 | 49 | 1016.3 |
| 20260507003959 | 64 | 34 | 4.0 | 6.0 | 0.00 | 0.00 | 0.00 | 48 | 1016.1 |
| 20260507003454 | 64 | 82 | 0.0 | 5.0 | 0.00 | 0.00 | 0.00 | 49 | 1016.4 |
| 20260507002949 | 64 | 85 | 2.0 | 6.0 | 0.00 | 0.00 | 0.00 | 48 | 1016.1 |
| 20260507002447 | 64 | 91 | 6.0 | 9.0 | 0.00 | 0.00 | 0.00 | 47 | 1016.2 |
| 20260507001943 | 65 | 101 | 2.0 | 6.0 | 0.00 | 0.00 | 0.00 | 48 | 1016.3 |
| 20260507001440 | 65 | 69 | 4.0 | 9.0 | 0.00 | 0.00 | 0.00 | 47 | 1016.1 |
| 20260507000937 | 65 | 61 | 6.0 | 7.0 | 0.00 | 0.00 | 0.00 | 47 | 1016.2 |
| 20260507000435 | 65 | 38 | 6.0 | 6.0 | 0.00 | 0.00 | 0.00 | 47 | 1016.1 |
| 20260506235928 | 65 | 122 | 0.0 | 5.0 | 0.00 | 0.00 | 0.00 | 46 | 1016.1 |
| 20260506235426 | 65 | 63 | 5.0 | 6.0 | 0.00 | 0.00 | 0.00 | 47 | 1016.2 |
| 20260506234921 | 66 | 52 | 4.0 | 7.0 | 0.00 | 0.00 | 0.00 | 46 | 1016.2 |
| 20260506234420 | 66 | 108 | 2.0 | 6.0 | 0.00 | 0.00 | 0.00 | 46 | 1016.1 |
| 20260506233917 | 66 | 116 | 2.0 | 4.0 | 0.00 | 0.00 | 0.00 | 46 | 1016.0 |
| 20260506233413 | 66 | 83 | 4.0 | 5.0 | 0.00 | 0.00 | 0.00 | 46 | 1015.8 |
| 20260506232910 | 66 | 50 | 5.0 | 6.0 | 0.00 | 0.00 | 0.00 | 45 | 1015.8 |
| 20260506232406 | 66 | 80 | 6.0 | 8.0 | 0.00 | 0.00 | 0.00 | 45 | 1015.9 |
| 20260506231902 | 66 | 94 | 4.0 | 5.0 | 0.00 | 0.00 | 0.00 | 46 | 1015.8 |
| 20260506231400 | 66 | 23 | 4.0 | 9.0 | 0.00 | 0.00 | 0.00 | 46 | 1015.5 |
| 20260506230857 | 66 | 106 | 4.0 | 8.0 | 0.00 | 0.00 | 0.00 | 46 | 1015.3 |
| 20260506230354 | 67 | 76 | 5.0 | 8.0 | 0.00 | 0.00 | 0.00 | 46 | 1015.8 |
| 20260506225849 | 67 | 56 | 5.0 | 8.0 | 0.00 | 0.00 | 0.00 | 45 | 1015.6 |
| 20260506225347 | 67 | 63 | 6.0 | 6.0 | 0.00 | 0.00 | 0.00 | 45 | 1015.4 |
| 20260506224844 | 67 | 104 | 2.0 | 6.0 | 0.00 | 0.00 | 0.00 | 44 | 1015.3 |
| 20260506224342 | 67 | 114 | 5.0 | 9.0 | 0.00 | 0.00 | 0.00 | 45 | 1015.4 |
| 20260506223838 | 67 | 50 | 6.0 | 12.0 | 0.00 | 0.00 | 0.00 | 44 | 1015.4 |
| 20260506223333 | 68 | 70 | 6.0 | 8.0 | 0.00 | 0.00 | 0.00 | 44 | 1015.1 |
| 20260506222831 | 67 | 92 | 8.0 | 10.0 | 0.00 | 0.00 | 0.00 | 46 | 1015.1 |
| 20260506222326 | 68 | 88 | 5.0 | 10.0 | 0.00 | 0.00 | 0.00 | 43 | 1015.4 |
| 20260506221824 | 68 | 45 | 3.0 | 7.0 | 0.00 | 0.00 | 0.00 | 43 | 1015.1 |
| 20260506221321 | 67 | 64 | 4.0 | 11.0 | 0.00 | 0.00 | 0.00 | 44 | 1015.3 |
| 20260506220819 | 68 | 63 | 4.0 | 9.0 | 0.00 | 0.00 | 0.00 | 43 | 1015.2 |
| 20260506220319 | 68 | 68 | 8.0 | 11.0 | 0.00 | 0.00 | 0.00 | 43 | 1015.2 |
| 20260506215816 | 69 | 89 | 0.0 | 8.0 | 0.00 | 0.00 | 0.00 | 42 | 1015.1 |
| 20260506215312 | 69 | 82 | 5.0 | 9.0 | 0.00 | 0.00 | 0.00 | 42 | 1015.2 |
| 20260506214808 | 68 | 102 | 4.0 | 10.0 | 0.00 | 0.00 | 0.00 | 44 | 1015.1 |
| 20260506214305 | 68 | 72 | 2.0 | 11.0 | 0.00 | 0.00 | 0.00 | 44 | 1015.4 |
| 20260506213804 | 68 | 82 | 4.0 | 9.0 | 0.00 | 0.00 | 0.00 | 45 | 1015.3 |
| 20260506213300 | 69 | 79 | 5.0 | 7.0 | 0.00 | 0.00 | 0.00 | 45 | 1015.4 |
| 20260506212758 | 69 | 269 | 1.0 | 8.0 | 0.00 | 0.00 | 0.00 | 44 | 1015.6 |
| 20260506212253 | 69 | 102 | 4.0 | 6.0 | 0.00 | 0.00 | 0.00 | 43 | 1015.3 |
| 20260506211748 | 69 | 126 | 4.0 | 4.0 | 0.00 | 0.00 | 0.00 | 44 | 1015.3 |
| 20260506211245 | 69 | 291 | 2.0 | 8.0 | 0.00 | 0.00 | 0.00 | 45 | 1015.5 |
| 20260506210742 | 69 | 124 | 2.0 | 4.0 | 0.00 | 0.00 | 0.00 | 44 | 1015.5 |
| 20260506210239 | 68 | 99 | 4.0 | 6.0 | 0.00 | 0.00 | 0.00 | 48 | 1015.7 |
| 20260506205736 | 68 | 69 | 5.0 | 9.0 | 0.00 | 0.00 | 0.00 | 45 | 1015.8 |
| 20260506205231 | 68 | 86 | 6.0 | 8.0 | 0.00 | 0.00 | 0.00 | 44 | 1015.7 |
| 20260506204729 | 68 | 66 | 0.0 | 8.0 | 0.00 | 0.00 | 0.00 | 48 | 1015.8 |
| 20260506204226 | 68 | 239 | 0.0 | 6.0 | 0.00 | 0.00 | 0.00 | 46 | 1015.8 |
| 20260506203724 | 68 | 64 | 4.0 | 7.0 | 0.00 | 0.00 | 0.00 | 47 | 1015.8 |
| 20260506203221 | 68 | 44 | 6.0 | 8.0 | 0.00 | 0.00 | 0.00 | 47 | 1015.8 |
| 20260506202719 | 68 | 232 | 2.0 | 8.0 | 0.00 | 0.00 | 0.00 | 46 | 1016.0 |
| 20260506202215 | 68 | 8 | 2.0 | 10.0 | 0.00 | 0.00 | 0.00 | 47 | 1015.9 |
| 20260506201712 | 68 | 137 | 3.0 | 6.0 | 0.00 | 0.00 | 0.00 | 47 | 1016.0 |
| 20260506201209 | 68 | 161 | 1.0 | 8.0 | 0.00 | 0.00 | 0.00 | 48 | 1015.8 |
| 20260506200705 | 67 | 79 | 6.0 | 8.0 | 0.00 | 0.00 | 0.00 | 49 | 1015.9 |
| 20260506200202 | 67 | 70 | 6.0 | 13.0 | 0.00 | 0.00 | 0.00 | 49 | 1015.8 |
| 20260506195658 | 67 | 60 | 2.0 | 7.0 | 0.00 | 0.00 | 0.00 | 48 | 1016.0 |
| 20260506195155 | 66 | 91 | 2.0 | 12.0 | 0.00 | 0.00 | 0.00 | 50 | 1016.0 |
| 20260506194653 | 66 | 70 | 4.0 | 9.0 | 0.00 | 0.00 | 0.00 | 50 | 1015.9 |
| 20260506194149 | 66 | 52 | 3.0 | 12.0 | 0.00 | 0.00 | 0.00 | 48 | 1015.8 |
| 20260506193646 | 66 | 98 | 6.0 | 9.0 | 0.00 | 0.00 | 0.00 | 49 | 1015.8 |
| 20260506193143 | 66 | 87 | 5.0 | 11.0 | 0.00 | 0.00 | 0.00 | 49 | 1015.7 |
| 20260506192640 | 65 | 10 | 2.0 | 11.0 | 0.00 | 0.00 | 0.00 | 50 | 1015.8 |
| 20260506192136 | 64 | 71 | 5.0 | 11.0 | 0.00 | 0.00 | 0.00 | 51 | 1015.8 |
| 20260506191633 | 65 | 61 | 8.0 | 14.0 | 0.00 | 0.00 | 0.00 | 50 | 1016.0 |
| 20260506191129 | 65 | 58 | 3.0 | 9.0 | 0.00 | 0.00 | 0.00 | 52 | 1015.8 |
| 20260506190627 | 65 | 55 | 7.0 | 9.0 | 0.00 | 0.00 | 0.00 | 51 | 1016.1 |
| 20260506190123 | 64 | 77 | 4.0 | 8.0 | 0.00 | 0.00 | 0.00 | 51 | 1016.5 |
| 20260506185621 | 64 | 71 | 5.0 | 8.0 | 0.00 | 0.00 | 0.00 | 52 | 1016.1 |
| 20260506185116 | 63 | 59 | 3.0 | 8.0 | 0.00 | 0.00 | 0.00 | 55 | 1016.3 |
| 20260506184614 | 64 | 87 | 4.0 | 9.0 | 0.00 | 0.00 | 0.00 | 54 | 1016.5 |
| 20260506184111 | 64 | 56 | 6.0 | 8.0 | 0.00 | 0.00 | 0.00 | 53 | 1016.4 |
| 20260506183608 | 63 | 40 | 4.0 | 12.0 | 0.00 | 0.00 | 0.00 | 54 | 1016.5 |
| 20260506183104 | 63 | 72 | 4.0 | 9.0 | 0.00 | 0.00 | 0.00 | 54 | 1016.3 |
| 20260506182602 | 62 | 75 | 8.0 | 10.0 | 0.00 | 0.00 | 0.00 | 56 | 1016.5 |
| 20260506182058 | 63 | 98 | 8.0 | 13.0 | 0.00 | 0.00 | 0.00 | 53 | 1016.8 |
| 20260506181556 | 62 | 57 | 9.0 | 12.0 | 0.00 | 0.00 | 0.00 | 53 | 1016.4 |
| 20260506181053 | 63 | 67 | 4.0 | 11.0 | 0.00 | 0.00 | 0.00 | 54 | 1016.4 |
| 20260506180550 | 62 | 57 | 2.0 | 6.0 | 0.00 | 0.00 | 0.00 | 55 | 1016.4 |
| 20260506180046 | 60 | 35 | 5.0 | 11.0 | 0.00 | 0.00 | 0.00 | 55 | 1016.7 |
| 20260506175542 | 60 | 76 | 5.0 | 16.0 | 0.00 | 0.00 | 0.00 | 57 | 1016.7 |
| 20260506175039 | 60 | 45 | 10.0 | 11.0 | 0.00 | 0.00 | 0.00 | 55 | 1016.7 |
| 20260506174538 | 60 | 64 | 6.0 | 9.0 | 0.00 | 0.00 | 0.00 | 57 | 1016.9 |
| 20260506174033 | 60 | 88 | 5.0 | 9.0 | 0.00 | 0.00 | 0.00 | 55 | 1016.9 |
| 20260506173531 | 60 | 70 | 9.0 | 12.0 | 0.00 | 0.00 | 0.00 | 55 | 1017.3 |
| 20260506173028 | 60 | 99 | 4.0 | 10.0 | 0.00 | 0.00 | 0.00 | 54 | 1017.4 |
| 20260506172526 | 59 | 66 | 6.0 | 6.0 | 0.00 | 0.00 | 0.00 | 59 | 1017.5 |
| 20260506172021 | 59 | 78 | 4.0 | 6.0 | 0.00 | 0.00 | 0.00 | 57 | 1017.3 |
| 20260506171519 | 59 | 70 | 6.0 | 11.0 | 0.00 | 0.00 | 0.00 | 57 | 1017.8 |
| 20260506171017 | 59 | 75 | 5.0 | 10.0 | 0.00 | 0.00 | 0.00 | 57 | 1017.5 |
| 20260506170514 | 59 | 74 | 7.0 | 9.0 | 0.00 | 0.00 | 0.00 | 57 | 1017.5 |
| 20260506170012 | 58 | 62 | 8.0 | 10.0 | 0.00 | 0.00 | 0.00 | 57 | 1017.8 |
| 20260506165510 | 59 | 86 | 7.0 | 8.0 | 0.00 | 0.00 | 0.00 | 58 | 1017.7 |
| 20260506165006 | 58 | 98 | 4.0 | 8.0 | 0.00 | 0.00 | 0.00 | 59 | 1017.9 |
| 20260506164502 | 58 | 64 | 6.0 | 12.0 | 0.00 | 0.00 | 0.00 | 58 | 1017.8 |
| 20260506164000 | 57 | 52 | 3.0 | 11.0 | 0.00 | 0.00 | 0.00 | 60 | 1017.9 |
| 20260506163455 | 57 | 51 | 5.0 | 10.0 | 0.00 | 0.00 | 0.00 | 59 | 1017.7 |
| 20260506162950 | 58 | 76 | 4.0 | 6.0 | 0.00 | 0.00 | 0.00 | 61 | 1017.9 |
| 20260506162448 | 58 | 52 | 4.0 | 11.0 | 0.00 | 0.00 | 0.00 | 59 | 1017.5 |
| 20260506161945 | 57 | 40 | 4.0 | 11.0 | 0.00 | 0.00 | 0.00 | 60 | 1017.8 |
| 20260506161443 | 56 | 30 | 7.0 | 11.0 | 0.00 | 0.00 | 0.00 | 60 | 1017.8 |
| 20260506160940 | 57 | 58 | 5.0 | 11.0 | 0.00 | 0.00 | 0.00 | 59 | 1017.9 |
| 20260506160438 | 57 | 67 | 5.0 | 7.0 | 0.00 | 0.00 | 0.00 | 60 | 1017.7 |
| 20260506155935 | 57 | 69 | 3.0 | 8.0 | 0.00 | 0.00 | 0.00 | 64 | 1017.9 |
| 20260506155433 | 57 | 58 | 4.0 | 11.0 | 0.00 | 0.00 | 0.00 | 60 | 1017.7 |
| 20260506153554 | 55 | 51 | 7.0 | 12.0 | 0.00 | 0.00 | 0.00 | 63 | 1017.8 |
| 20260506153051 | 55 | 54 | 9.0 | 11.0 | 0.00 | 0.00 | 0.00 | 64 | 1017.9 |
| 20260506152548 | 55 | 51 | 8.0 | 10.0 | 0.00 | 0.00 | 0.00 | 63 | 1017.8 |
| 20260506152046 | 54 | 48 | 6.0 | 13.0 | 0.00 | 0.00 | 0.00 | 64 | 1017.7 |
| 20260506151544 | 54 | 42 | 5.0 | 10.0 | 0.00 | 0.00 | 0.00 | 65 | 1017.5 |
| 20260506151041 | 55 | 51 | 11.0 | 13.0 | 0.00 | 0.00 | 0.00 | 64 | 1017.5 |
| 20260506150537 | 54 | 78 | 5.0 | 9.0 | 0.00 | 0.00 | 0.00 | 66 | 1017.5 |
| 20260506150034 | 53 | 50 | 5.0 | 11.0 | 0.00 | 0.00 | 0.00 | 66 | 1017.3 |
| 20260506145531 | 53 | 58 | 6.0 | 11.0 | 0.00 | 0.00 | 0.00 | 68 | 1017.2 |
| 20260506145028 | 53 | 65 | 6.0 | 10.0 | 0.00 | 0.00 | 0.00 | 69 | 1017.0 |
| 20260506144525 | 53 | 50 | 8.0 | 9.0 | 0.00 | 0.00 | 0.00 | 69 | 1016.9 |
| 20260506144022 | 52 | 40 | 8.0 | 10.0 | 0.00 | 0.00 | 0.00 | 69 | 1017.0 |
| 20260506143520 | 52 | 57 | 6.0 | 11.0 | 0.00 | 0.00 | 0.00 | 70 | 1016.9 |
| 20260506143018 | 52 | 120 | 6.0 | 10.0 | 0.00 | 0.00 | 0.00 | 70 | 1016.5 |
| 20260506142515 | 52 | 70 | 6.0 | 12.0 | 0.00 | 0.00 | 0.00 | 70 | 1016.4 |
| 20260506142014 | 51 | 63 | 8.0 | 14.0 | 0.00 | 0.00 | 0.00 | 71 | 1016.4 |
| 20260506141511 | 51 | 1 | 1.0 | 10.0 | 0.00 | 0.00 | 0.00 | 71 | 1016.5 |
| 20260506141009 | 51 | 71 | 8.0 | 13.0 | 0.00 | 0.00 | 0.00 | 71 | 1016.5 |
| 20260506140506 | 51 | 59 | 6.0 | 10.0 | 0.00 | 0.00 | 0.00 | 71 | 1016.4 |
| 20260506140004 | 52 | 42 | 8.0 | 13.0 | 0.00 | 0.00 | 0.00 | 70 | 1016.4 |
| 20260506135500 | 51 | 74 | 6.0 | 16.0 | 0.00 | 0.00 | 0.00 | 71 | 1016.2 |
| 20260506134956 | 51 | 75 | 9.0 | 13.0 | 0.00 | 0.00 | 0.00 | 71 | 1016.1 |
| 20260506134452 | 51 | 51 | 9.0 | 13.0 | 0.00 | 0.00 | 0.00 | 70 | 1016.0 |
| 20260506133949 | 51 | 68 | 6.0 | 6.0 | 0.00 | 0.00 | 0.00 | 71 | 1016.1 |
| 20260506133446 | 51 | 60 | 8.0 | 14.0 | 0.00 | 0.00 | 0.00 | 70 | 1016.1 |
| 20260506132943 | 51 | 74 | 4.0 | 8.0 | 0.00 | 0.00 | 0.00 | 71 | 1016.0 |
| 20260506132440 | 51 | 118 | 2.0 | 7.0 | 0.00 | 0.00 | 0.00 | 70 | 1016.2 |
| 20260506131937 | 51 | 68 | 6.0 | 11.0 | 0.00 | 0.00 | 0.00 | 70 | 1016.2 |
| 20260506131434 | 51 | 73 | 6.0 | 14.0 | 0.00 | 0.00 | 0.00 | 70 | 1016.1 |
| 20260506130931 | 51 | 91 | 7.0 | 14.0 | 0.00 | 0.00 | 0.00 | 71 | 1016.0 |
| 20260506130427 | 51 | 85 | 6.0 | 9.0 | 0.00 | 0.00 | 0.00 | 71 | 1016.0 |
| 20260506125925 | 51 | 96 | 3.0 | 10.0 | 0.00 | 0.00 | 0.00 | 72 | 1016.1 |
| 20260506125423 | 50 | 92 | 4.0 | 11.0 | 0.00 | 0.00 | 0.00 | 72 | 1015.7 |
| 20260506124922 | 50 | 74 | 3.0 | 9.0 | 0.00 | 0.00 | 0.00 | 73 | 1015.6 |
| 20260506124419 | 50 | 74 | 5.0 | 9.0 | 0.00 | 0.00 | 0.00 | 72 | 1015.6 |
| 20260506123916 | 50 | 73 | 6.0 | 11.0 | 0.00 | 0.00 | 0.00 | 72 | 1015.6 |
| 20260506123414 | 50 | 71 | 12.0 | 13.0 | 0.00 | 0.00 | 0.00 | 72 | 1015.6 |
| 20260506122911 | 50 | 58 | 4.0 | 10.0 | 0.00 | 0.00 | 0.00 | 71 | 1015.7 |
| 20260506122408 | 50 | 55 | 3.0 | 11.0 | 0.00 | 0.00 | 0.00 | 71 | 1015.7 |
| 20260506121906 | 50 | 75 | 5.0 | 11.0 | 0.00 | 0.00 | 0.00 | 71 | 1015.7 |
| 20260506121403 | 50 | 75 | 5.0 | 9.0 | 0.00 | 0.00 | 0.00 | 70 | 1015.7 |
| 20260506120900 | 50 | 45 | 2.0 | 10.0 | 0.00 | 0.00 | 0.00 | 70 | 1015.5 |
| 20260506120357 | 50 | 47 | 6.0 | 10.0 | 0.00 | 0.00 | 0.00 | 70 | 1015.2 |
| 20260506115855 | 50 | 74 | 4.0 | 11.0 | 0.00 | 0.00 | 0.00 | 69 | 1015.4 |
| 20260506115353 | 50 | 72 | 6.0 | 6.0 | 0.00 | 0.00 | 0.00 | 69 | 1015.0 |
| 20260506114851 | 50 | 70 | 3.0 | 9.0 | 0.00 | 0.00 | 0.00 | 69 | 1015.0 |
| 20260506114348 | 50 | 47 | 6.0 | 8.0 | 0.00 | 0.00 | 0.00 | 69 | 1014.8 |
| 20260506113847 | 50 | 120 | 5.0 | 7.0 | 0.00 | 0.00 | 0.00 | 68 | 1014.8 |
| 20260506113344 | 50 | 76 | 5.0 | 11.0 | 0.00 | 0.00 | 0.00 | 68 | 1015.0 |
| 20260506112840 | 50 | 54 | 8.0 | 10.0 | 0.00 | 0.00 | 0.00 | 67 | 1015.1 |
| 20260506112337 | 50 | 36 | 7.0 | 11.0 | 0.00 | 0.00 | 0.00 | 67 | 1015.0 |
| 20260506111835 | 50 | 78 | 4.0 | 9.0 | 0.00 | 0.00 | 0.00 | 67 | 1014.9 |
| 20260506111333 | 50 | 70 | 7.0 | 11.0 | 0.00 | 0.00 | 0.00 | 67 | 1014.7 |
| 20260506110830 | 50 | 31 | 3.0 | 13.0 | 0.00 | 0.00 | 0.00 | 66 | 1014.4 |
| 20260506110327 | 50 | 64 | 7.0 | 11.0 | 0.00 | 0.00 | 0.00 | 66 | 1014.5 |
| 20260506105824 | 50 | 59 | 6.0 | 7.0 | 0.00 | 0.00 | 0.00 | 67 | 1014.7 |
| 20260506105320 | 50 | 65 | 10.0 | 11.0 | 0.00 | 0.00 | 0.00 | 66 | 1014.1 |
| 20260506104818 | 50 | 79 | 5.0 | 7.0 | 0.00 | 0.00 | 0.00 | 66 | 1014.4 |
| 20260506104316 | 50 | 91 | 3.0 | 12.0 | 0.00 | 0.00 | 0.00 | 66 | 1014.8 |
| 20260506103813 | 51 | 72 | 6.0 | 11.0 | 0.00 | 0.00 | 0.00 | 66 | 1014.8 |
| 20260506103310 | 51 | 70 | 9.0 | 10.0 | 0.00 | 0.00 | 0.00 | 66 | 1014.8 |
| 20260506102808 | 51 | 69 | 5.0 | 8.0 | 0.00 | 0.00 | 0.00 | 66 | 1014.8 |
| 20260506102306 | 51 | 118 | 5.0 | 13.0 | 0.00 | 0.00 | 0.00 | 66 | 1014.9 |
| 20260506101803 | 51 | 73 | 4.0 | 6.0 | 0.00 | 0.00 | 0.00 | 67 | 1014.8 |
| 20260506101258 | 51 | 57 | 5.0 | 7.0 | 0.00 | 0.00 | 0.00 | 67 | 1014.5 |
| 20260506100757 | 51 | 92 | 4.0 | 12.0 | 0.00 | 0.00 | 0.00 | 66 | 1014.7 |
| 20260506100254 | 51 | 65 | 2.0 | 8.0 | 0.00 | 0.00 | 0.00 | 66 | 1014.5 |
| 20260506095753 | 51 | 34 | 4.0 | 11.0 | 0.00 | 0.00 | 0.00 | 66 | 1014.5 |
| 20260506095249 | 51 | 51 | 3.0 | 6.0 | 0.00 | 0.00 | 0.00 | 66 | 1014.5 |
| 20260506094746 | 51 | 76 | 6.0 | 10.0 | 0.00 | 0.00 | 0.00 | 66 | 1014.7 |
| 20260506094244 | 51 | 54 | 4.0 | 9.0 | 0.00 | 0.00 | 0.00 | 66 | 1014.3 |
| 20260506093743 | 51 | 77 | 7.0 | 8.0 | 0.00 | 0.00 | 0.00 | 66 | 1014.3 |
| 20260506093239 | 51 | 62 | 2.0 | 6.0 | 0.00 | 0.00 | 0.00 | 66 | 1014.7 |
| 20260506092737 | 51 | 69 | 2.0 | 5.0 | 0.00 | 0.00 | 0.00 | 65 | 1014.4 |
| 20260506092235 | 51 | 109 | 4.0 | 4.0 | 0.00 | 0.00 | 0.00 | 65 | 1014.5 |
| 20260506091732 | 51 | 110 | 3.0 | 4.0 | 0.00 | 0.00 | 0.00 | 65 | 1014.4 |
| 20260506091229 | 51 | 50 | 7.0 | 9.0 | 0.00 | 0.00 | 0.00 | 64 | 1014.3 |
| 20260506090727 | 51 | 115 | 4.0 | 8.0 | 0.00 | 0.00 | 0.00 | 64 | 1014.3 |
| 20260506090224 | 51 | 70 | 3.0 | 8.0 | 0.00 | 0.00 | 0.00 | 65 | 1014.3 |
| 20260506085721 | 51 | 92 | 6.0 | 7.0 | 0.00 | 0.00 | 0.00 | 65 | 1014.3 |
| 20260506085217 | 51 | 80 | 4.0 | 7.0 | 0.00 | 0.00 | 0.00 | 66 | 1014.2 |
| 20260506084714 | 51 | 55 | 5.0 | 7.0 | 0.00 | 0.00 | 0.00 | 66 | 1014.3 |
| 20260506084210 | 51 | 71 | 4.0 | 9.0 | 0.00 | 0.00 | 0.00 | 66 | 1014.5 |
| 20260506083707 | 51 | 86 | 4.0 | 8.0 | 0.00 | 0.00 | 0.00 | 67 | 1014.4 |
| 20260506083205 | 51 | 79 | 3.0 | 7.0 | 0.00 | 0.00 | 0.00 | 68 | 1014.2 |
| 20260506082702 | 51 | 77 | 3.0 | 5.0 | 0.00 | 0.00 | 0.00 | 69 | 1013.9 |
| 20260506082202 | 51 | 63 | 6.0 | 6.0 | 0.00 | 0.00 | 0.00 | 69 | 1013.9 |
| 20260506081700 | 51 | 92 | 3.0 | 5.0 | 0.00 | 0.00 | 0.00 | 70 | 1013.9 |
| 20260506081158 | 50 | 67 | 3.0 | 5.0 | 0.00 | 0.00 | 0.00 | 70 | 1013.9 |
| 20260506080655 | 50 | 78 | 4.0 | 5.0 | 0.00 | 0.00 | 0.00 | 71 | 1013.7 |
| 20260506080152 | 50 | 70 | 4.0 | 5.0 | 0.00 | 0.00 | 0.00 | 72 | 1013.2 |
| 20260506073136 | 50 | 77 | 1.0 | 7.0 | 0.00 | 0.00 | 0.00 | 74 | 1012.9 |
| 20260506072632 | 50 | 62 | 6.0 | 10.0 | 0.00 | 0.00 | 0.00 | 74 | 1012.7 |
| 20260506072131 | 50 | 24 | 3.0 | 8.0 | 0.00 | 0.00 | 0.00 | 74 | 1012.8 |
| 20260506071628 | 50 | 54 | 4.0 | 9.0 | 0.00 | 0.00 | 0.00 | 75 | 1012.8 |
| 20260506071125 | 50 | 47 | 8.0 | 11.0 | 0.00 | 0.00 | 0.00 | 74 | 1012.9 |
| 20260506070622 | 50 | 66 | 3.0 | 11.0 | 0.00 | 0.00 | 0.00 | 75 | 1012.7 |
| 20260506070119 | 50 | 43 | 6.0 | 10.0 | 0.00 | 0.00 | 0.00 | 75 | 1012.6 |
| 20260506062056 | 51 | 87 | 5.0 | 9.0 | 0.00 | 0.00 | 0.00 | 77 | 1012.6 |
| 20260506061552 | 51 | 63 | 4.0 | 8.0 | 0.00 | 0.00 | 0.00 | 77 | 1012.8 |
| 20260506061050 | 51 | 97 | 1.0 | 6.0 | 0.00 | 0.00 | 0.00 | 77 | 1012.7 |
| 20260506060548 | 51 | 70 | 5.0 | 10.0 | 0.00 | 0.00 | 0.00 | 77 | 1012.5 |
| 20260506051017 | 51 | 80 | 4.0 | 9.0 | 0.00 | 0.00 | 0.00 | 77 | 1012.5 |
| 20260506050515 | 51 | 69 | 6.0 | 9.0 | 0.00 | 0.00 | 0.00 | 78 | 1012.3 |
| 20260506045005 | 51 | 91 | 8.0 | 10.0 | 0.00 | 0.00 | 0.00 | 77 | 1012.5 |
| 20260506044503 | 51 | 83 | 4.0 | 6.0 | 0.00 | 0.00 | 0.00 | 77 | 1012.5 |
| 20260506043959 | 51 | 73 | 5.0 | 9.0 | 0.00 | 0.00 | 0.00 | 77 | 1012.3 |
| 20260506043456 | 51 | 53 | 6.0 | 8.0 | 0.00 | 0.00 | 0.00 | 77 | 1012.5 |
| 20260506042955 | 51 | 85 | 5.0 | 8.0 | 0.00 | 0.00 | 0.00 | 77 | 1012.2 |
| 20260506042454 | 51 | 52 | 5.0 | 7.0 | 0.00 | 0.00 | 0.00 | 77 | 1012.1 |
| 20260506041951 | 51 | 75 | 6.0 | 13.0 | 0.00 | 0.00 | 0.00 | 76 | 1012.4 |
| 20260506041450 | 51 | 128 | 5.0 | 11.0 | 0.00 | 0.00 | 0.00 | 76 | 1012.3 |
| 20260506040947 | 51 | 64 | 5.0 | 12.0 | 0.00 | 0.00 | 0.00 | 76 | 1012.4 |
| 20260506040444 | 51 | 70 | 6.0 | 12.0 | 0.00 | 0.00 | 0.00 | 76 | 1012.2 |
| 20260506035940 | 51 | 55 | 11.0 | 13.0 | 0.00 | 0.00 | 0.00 | 76 | 1012.6 |
| 20260506035437 | 51 | 79 | 9.0 | 13.0 | 0.00 | 0.00 | 0.00 | 76 | 1012.3 |
| 20260506034934 | 51 | 62 | 7.0 | 10.0 | 0.00 | 0.00 | 0.00 | 77 | 1012.5 |
| 20260506034431 | 51 | 62 | 6.0 | 12.0 | 0.00 | 0.00 | 0.00 | 77 | 1012.4 |
| 20260506033928 | 51 | 63 | 6.0 | 9.0 | 0.00 | 0.00 | 0.00 | 78 | 1012.5 |
| 20260506033426 | 51 | 104 | 3.0 | 10.0 | 0.00 | 0.00 | 0.00 | 78 | 1012.2 |
| 20260506032922 | 51 | 25 | 6.0 | 11.0 | 0.00 | 0.00 | 0.00 | 77 | 1012.3 |
| 20260506032419 | 51 | 51 | 5.0 | 10.0 | 0.00 | 0.00 | 0.00 | 78 | 1012.3 |
| 20260506031916 | 51 | 91 | 4.0 | 11.0 | 0.00 | 0.00 | 0.00 | 77 | 1012.2 |
| 20260506031413 | 51 | 62 | 10.0 | 13.0 | 0.00 | 0.00 | 0.00 | 77 | 1012.2 |
| 20260506030911 | 52 | 55 | 6.0 | 11.0 | 0.00 | 0.00 | 0.00 | 76 | 1012.1 |
| 20260506030409 | 52 | 84 | 5.0 | 8.0 | 0.00 | 0.00 | 0.00 | 76 | 1012.1 |
| 20260506025905 | 52 | 58 | 5.0 | 11.0 | 0.00 | 0.00 | 0.00 | 75 | 1011.8 |
| 20260506025402 | 52 | 71 | 4.0 | 11.0 | 0.00 | 0.00 | 0.00 | 76 | 1011.8 |
| 20260506024859 | 52 | 78 | 8.0 | 12.0 | 0.00 | 0.00 | 0.00 | 75 | 1011.6 |
| 20260506024356 | 52 | 49 | 6.0 | 8.0 | 0.00 | 0.00 | 0.00 | 75 | 1011.6 |
| 20260506023852 | 52 | 28 | 5.0 | 13.0 | 0.00 | 0.00 | 0.00 | 75 | 1011.6 |
| 20260506023349 | 52 | 77 | 7.0 | 10.0 | 0.00 | 0.00 | 0.00 | 75 | 1011.6 |
| 20260506022845 | 52 | 74 | 4.0 | 11.0 | 0.00 | 0.00 | 0.00 | 75 | 1011.4 |
| 20260506022343 | 52 | 86 | 8.0 | 10.0 | 0.00 | 0.00 | 0.00 | 74 | 1011.3 |
| 20260506021841 | 52 | 45 | 8.0 | 10.0 | 0.00 | 0.00 | 0.00 | 74 | 1011.4 |
| 20260506021338 | 52 | 71 | 4.0 | 11.0 | 0.00 | 0.00 | 0.00 | 73 | 1011.1 |
| 20260506020834 | 53 | 73 | 5.0 | 10.0 | 0.00 | 0.00 | 0.00 | 74 | 1011.1 |
| 20260506020333 | 53 | 61 | 5.0 | 10.0 | 0.00 | 0.00 | 0.00 | 74 | 1011.1 |
| 20260506015830 | 53 | 25 | 5.0 | 11.0 | 0.00 | 0.00 | 0.00 | 74 | 1011.0 |
| 20260506015327 | 53 | 85 | 6.0 | 14.0 | 0.00 | 0.00 | 0.00 | 73 | 1010.9 |
| 20260506014824 | 53 | 67 | 9.0 | 11.0 | 0.00 | 0.00 | 0.00 | 73 | 1010.5 |
| 20260506014320 | 53 | 82 | 8.0 | 13.0 | 0.00 | 0.00 | 0.00 | 73 | 1010.6 |
| 20260506013817 | 53 | 99 | 6.0 | 9.0 | 0.00 | 0.00 | 0.00 | 73 | 1010.4 |
| 20260506013315 | 53 | 52 | 4.0 | 8.0 | 0.00 | 0.00 | 0.00 | 73 | 1010.5 |
| 20260506012811 | 53 | 58 | 3.0 | 9.0 | 0.00 | 0.00 | 0.00 | 73 | 1010.4 |